Location: Kellogg
(38.0159°N, 90.0546°W)
Time: 03:42:04
(UTC+00:00)

SR - Pass Details

Date: 20 September 2024
Orbit: 577 x 855 km, 66.7° (Epoch: 10 October)

Event Time Altitude Azimuth Distance (km) Brightness Sun altitude
Rises 17:15:24 0° 196° (SSW) 2,823 ? 51.7°
Reaches altitude 10° 17:17:41 10° 192° (SSW) 1,905 ? 51.8°
Maximum altitude 17:21:50 56° 115° (ESE) 693 ? 52.0°
Drops below altitude 10° 17:25:57 10° 37° (NE) 1,896 ? 52.2°
Sets 17:28:13 0° 33° (NNE) 2,810 ? 52.2°
